Location: Emblem
(62.4273°N, 6.4710°E)
Time: 06:12:55
(UTC+02:00)

Transit 2A - Pass Details

Date: 05 March 2024
Orbit: 596 x 956 km, 66.7° (Epoch: 24 April)

Event Time Altitude Azimuth Distance (km) Brightness Sun altitude
Rises 19:00:15 0° 212° (SSW) 2,835 9.4 -6.7°
Reaches altitude 10° 19:02:30 10° 207° (SSW) 1,939 8.5 -7.0°
Maximum altitude 19:06:39 48° 133° (SE) 811 5.9 -7.5°
Drops below altitude 10° 19:11:01 10° 60° (ENE) 2,036 7.7 -8.0°
Enters shadow 19:12:16 - 57° (ENE) 2,529 8.2 -8.1°
